Location: Prague
(50.0830°N, 14.4670°E)
Time: 22:31:48
(UTC+01:00)

BEESAT 2 - Pass Details

Date: 08 December 2021
Orbit: 498 x 513 km, 64.9° (Epoch: 22 January)

Event Time Altitude Azimuth Distance (km) Brightness Sun altitude
Exits shadow 05:42:05 39° 232° (SW) 779 ? -19.1°
Drops below altitude 10° 05:45:34 10° 169° (SSE) 1,733 ? -18.6°
Sets 05:47:48 0° 161° (SSE) 2,612 ? -18.2°
